This demonstration page uses our WeatherBlox Daily Observations layout. Learn more.

Left ArrowRight Arrow

Hourly Observations for April 7, 2015

Temp ( °F °C ) Dew Point ( °F °C ) Humidity (%) Winds ( mph kmh ) Pressure ( in mb ) Visibility ( mi km ) Precip ( " mm )
12:16 am 00:16 Mostly Cloudy 55 13 48 9 77 77 SSE 5 7 30.03 1017 10 16.0934 N/A
12:36 am 00:36 Cloudy 55 13 48 9 77 77 SSE 5 7 30.03 1017 10 16.0934 N/A
12:55 am 00:55 Mostly Cloudy 55 13 48 9 77 77 SE 5 7 30.03 1017 10 16.0934 N/A
1:16 am 01:16 Mostly Cloudy 55 13 50 10 82 82 SE 5 7 30.03 1017 10 16.0934 N/A
1:36 am 01:36 Mostly Cloudy 55 13 50 10 82 82 SSE 5 7 30.03 1017 10 16.0934 N/A
1:55 am 01:55 Cloudy 55 13 50 10 82 82 SSE 6 9 30.03 1017 10 16.0934 N/A
2:16 am 02:16 Cloudy 55 13 52 11 88 88 SSE 7 11 30.03 1017 10 16.0934 N/A
2:36 am 02:36 Cloudy 57 14 52 11 82 82 S 7 11 30.03 1017 10 16.0934 N/A
2:55 am 02:55 Cloudy 57 14 54 12 88 88 S 9 15 30.03 1017 10 16.0934 N/A
3:16 am 03:16 Cloudy 57 14 57 14 100 100 S 8 13 30 1016 10 16.0934 N/A
3:35 am 03:35 Cloudy 57 14 57 14 100 100 S 8 13 30 1016 10 16.0934 N/A
3:56 am 03:56 Cloudy 57 14 N/A N/A S 7 11 30 1016 10 16.0934 N/A
4:16 am 04:16 Cloudy 57 14 N/A N/A S 6 9 30 1016 10 16.0934 N/A
4:35 am 04:35 Cloudy 57 14 N/A N/A S 6 9 30 1016 10 16.0934 N/A
4:56 am 04:56 Cloudy 57 14 N/A N/A S 6 9 30 1016 10 16.0934 N/A
5:16 am 05:16 Cloudy 57 14 N/A N/A S 8 13 30 1016 7 11.26538 N/A
5:35 am 05:35 Cloudy 57 14 N/A N/A S 10 17 30 1016 7 11.26538 N/A
5:56 am 05:56 Mostly Cloudy 57 14 N/A N/A S 8 13 30 1016 7 11.26538 N/A
6:16 am 06:16 Mostly Cloudy 57 14 N/A N/A S 8 13 30 1016 7 11.26538 N/A
6:35 am 06:35 Cloudy 57 14 N/A N/A S 7 11 30 1016 4 6.43736 N/A
6:56 am 06:56 Cloudy 57 14 N/A N/A S 6 9 30 1016 4 6.43736 N/A
7:16 am 07:16 Cloudy 57 14 N/A N/A S 8 13 30 1016 3 4.82802 N/A
7:35 am 07:35 Cloudy 57 14 N/A N/A S 8 13 30 1016 3 4.82802 N/A
7:56 am 07:56 Cloudy 57 14 N/A N/A S 7 11 30 1016 3 4.82802 N/A
8:16 am 08:16 Cloudy 57 14 N/A N/A S 9 15 30 1016 1.75 2.816345 N/A
8:35 am 08:35 Cloudy 57 14 N/A N/A S 8 13 30.03 1017 2 3.21868 N/A
8:56 am 08:56 Cloudy 57 14 N/A N/A SSW 7 11 30.03 1017 2.5 4.02335 N/A
9:16 am 09:16 Cloudy 57 14 N/A N/A S 7 11 30.03 1017 1.5 2.41401 N/A
9:36 am 09:36 Cloudy 59 15 N/A N/A S 7 11 30.03 1017 1.75 2.816345 N/A
9:56 am 09:56 Cloudy 59 15 N/A N/A SSW 5 7 30.03 1017 1.5 2.41401 N/A
10:15 am 10:15 Cloudy 59 15 N/A N/A Calm 30.03 1017 3 4.82802 N/A
10:36 am 10:36 Cloudy 61 16 N/A N/A SSW 5 7 30.03 1017 4 6.43736 N/A
10:56 am 10:56 Cloudy 61 16 N/A N/A SW 3 6 30.03 1017 3 4.82802 N/A
11:15 am 11:15 Cloudy 63 17 N/A N/A WSW 5 7 30.03 1017 7 11.26538 N/A
11:36 am 11:36 Cloudy 63 17 N/A N/A SSW 6 9 30.03 1017 7 11.26538 N/A
11:56 am 11:56 Cloudy 63 17 N/A N/A SSW 5 7 30.03 1017 5 8.0467 N/A
12:15 pm 12:15 Cloudy 63 17 N/A N/A SW 5 7 30.03 1017 5 8.0467 N/A
12:36 pm 12:36 Cloudy 63 17 N/A N/A SW 5 7 30.03 1017 5 8.0467 N/A
12:56 pm 12:56 Cloudy 63 17 N/A N/A SW 6 9 30.06 1018 2.5 4.02335 N/A
1:15 pm 13:15 Cloudy 64 18 N/A N/A SW 5 7 30.06 1018 5 8.0467 N/A
1:36 pm 13:36 Cloudy 64 18 N/A N/A SW 3 6 30.06 1018 5 8.0467 N/A
1:56 pm 13:56 Mostly Cloudy 66 19 N/A N/A SSE 5 7 30.03 1017 7 11.26538 N/A
2:15 pm 14:15 Mostly Cloudy 66 19 N/A N/A SW 5 7 30.03 1017 10 16.0934 N/A
2:36 pm 14:36 Cloudy 66 19 N/A N/A S 5 7 30.03 1017 10 16.0934 N/A
2:56 pm 14:56 Cloudy 64 18 N/A N/A Calm 30.03 1017 10 16.0934 N/A
3:16 pm 15:16 Cloudy 64 18 N/A N/A Calm 30 1016 10 16.0934 N/A
3:36 pm 15:36 Cloudy 66 19 61 16 83 83 Calm 30 1016 10 16.0934 N/A
3:55 pm 15:55 Cloudy 66 19 61 16 83 83 Calm 30 1016 10 16.0934 N/A
4:16 pm 16:16 Cloudy 66 19 59 15 78 78 Calm 30 1016 10 16.0934 N/A
4:36 pm 16:36 Mostly Cloudy 66 19 59 15 78 78 SSE 8 13 30 1016 10 16.0934 N/A
4:55 pm 16:55 Cloudy 66 19 61 16 83 83 S 5 7 30 1016 10 16.0934 N/A
5:16 pm 17:16 Mostly Cloudy 66 19 63 17 88 88 SE 6 9 29.97 1015 10 16.0934 N/A
5:36 pm 17:36 Mostly Cloudy 66 19 61 16 83 83 Calm 30 1016 10 16.0934 N/A
5:55 pm 17:55 Mostly Cloudy 66 19 63 17 88 88 SE 3 6 30 1016 10 16.0934 N/A
6:16 pm 18:16 Mostly Cloudy 66 19 64 18 94 94 E 6 9 29.97 1015 10 16.0934 N/A
6:36 pm 18:36 Cloudy 66 19 66 19 100 100 ESE 5 7 29.97 1015 10 16.0934 N/A
6:55 pm 18:55 Cloudy 66 19 66 19 100 100 E 6 9 29.97 1015 10 16.0934 N/A
7:16 pm 19:16 Cloudy 66 19 N/A N/A ENE 5 7 29.97 1015 10 16.0934 N/A
7:36 pm 19:36 Cloudy 64 18 N/A N/A E 3 6 29.97 1015 10 16.0934 N/A
7:56 pm 19:56 Cloudy 64 18 N/A N/A NE 10 17 29.97 1015 10 16.0934 N/A
8:16 pm 20:16 Cloudy 61 16 N/A N/A NE 10 17 29.97 1015 7 11.26538 N/A
8:36 pm 20:36 Cloudy 59 15 N/A N/A NE 12 19 30 1016 7 11.26538 N/A
8:56 pm 20:56 Cloudy 57 14 N/A N/A NE 9 15 30 1016 7 11.26538 N/A
9:16 pm 21:16 Cloudy 55 13 N/A N/A NE 8 13 30 1016 4 6.43736 N/A
9:35 pm 21:35 Cloudy 55 13 N/A N/A ENE 6 9 30.03 1017 4 6.43736 N/A
9:56 pm 21:56 Cloudy 54 12 N/A N/A ENE 6 9 30.03 1017 4 6.43736 N/A
10:16 pm 22:16 Cloudy 54 12 N/A N/A ENE 7 11 30.03 1017 4 6.43736 N/A
10:35 pm 22:35 Cloudy 54 12 N/A N/A NE 7 11 30.03 1017 4 6.43736 N/A
10:56 pm 22:56 Cloudy 52 11 N/A N/A ENE 9 15 30.09 1019 3 4.82802 N/A
11:16 pm 23:16 Cloudy 52 11 N/A N/A NE 9 15 30.06 1018 3 4.82802 N/A
11:35 pm 23:35 Cloudy 52 11 N/A N/A NE 7 11 30.06 1018 3 4.82802 N/A
11:56 pm 23:56 Cloudy 52 11 N/A N/A NE 5 7 30.09 1019 2.5 4.02335 N/A

Powered by AerisWeather